Weather History for Eureka, NV

Change the Weather History Date:

Wednesday, September 25, 2013

  Actual Average Record
Temperature  
Mean Temperature 48 °F 54 °F  
Max Temperature 58 °F 74 °F 87 °F (1963)
Min Temperature 37 °F 35 °F 15 °F (1970)
Degree Days  
Heating Degree Days 17 11  
Month to date heating degree days 110 158  
Since 1 July heating degree days 111 205  
Cooling Degree Days 0 0  
Month to date cooling degree days 44 9  
Year to date cooling degree days 585 286  
Moisture  
Dew Point 22 °F    
Average Humidity 40    
Maximum Humidity 59    
Minimum Humidity 21    
Precipitation  
Precipitation 0.00 in 0.02 in 0.20 in (1997)
Month to date precipitation 1.16 0.48  
Year to date precipitation 6.11 6.77  
Sea Level Pressure  
Sea Level Pressure 29.64 in    
Wind  
Wind Speed 13 mph (NW)    
Max Wind Speed 24 mph    
Max Gust Speed 32 mph    
T = Trace of Precipitation, MM = Missing Value Source: NWS Daily Summary

Daily Weather History Graph

Daily Weather History Graph

Search for Another Location

Airport:

Trip Planner

Search our weather history database for the weather conditions in past years. The results will help you decide how hot, cold, wet, or windy it might be!

Date:

Astronomy

Sep. 25, 2013 Rise Set
Actual Time 6:34 AM PDT 6:35 PM PDT
Civil Twilight 6:07 AM PDT 7:02 PM PDT
Nautical Twilight 5:36 AM PDT 7:33 PM PDT
Astronomical Twilight 5:04 AM PDT 8:05 PM PDT
Moon 10:46 PM PDT (9/25) 12:42 PM PDT (9/25)
Length of Visible Light 12h 54m
Length of Day
12h 00m
Waning Gibbous, 63% of the Moon is Illuminated
Sep 25
Waning Gibbous
Sep 26
Last Quarter
Oct 4
New
Oct 11
First Quarter
Oct 18
Full

Hourly Weather History & Observations

Time (PDT) Temp. Windchill Dew Point Humidity Pressure Visibility Wind Dir Wind Speed Gust Speed Precip Events Conditions
12:53 AM 39.9 °F - 25.0 °F 55% 29.59 in - Calm Calm - N/A   Unknown
1:53 AM 41.0 °F - 24.1 °F 51% 29.58 in - North - - N/A   Unknown
2:53 AM 37.9 °F 35.5 °F 25.0 °F 60% 29.57 in - SE 3.5 mph - N/A   Unknown
3:53 AM 50.0 °F - 24.1 °F 36% 29.54 in - WNW 13.8 mph - N/A   Unknown
4:53 AM 48.9 °F - 27.0 °F 43% 29.55 in - WNW 15.0 mph - N/A   Unknown
5:27 AM 46.9 °F - 26.1 °F 44% 29.77 in - NW 12.7 mph - N/A   Unknown
5:53 AM 46.9 °F - 25.0 °F 42% 29.57 in - NW 10.4 mph 21.9 mph N/A   Unknown
6:53 AM 46.9 °F - 26.1 °F 44% 29.59 in - NW 18.4 mph - N/A   Unknown
7:53 AM 46.9 °F - 27.0 °F 46% 29.61 in - NW 15.0 mph - N/A   Unknown
8:53 AM 50.0 °F - 26.1 °F 39% 29.63 in - West 15.0 mph 23.0 mph N/A   Unknown
9:53 AM 50.0 °F - 23.0 °F 35% 29.65 in - Variable 6.9 mph - N/A   Unknown
10:53 AM 54.0 °F - 19.9 °F 26% 29.62 in - WNW 9.2 mph 31.1 mph N/A   Unknown
11:53 AM 55.0 °F - 19.9 °F 25% 29.63 in - WNW 16.1 mph 26.5 mph N/A   Unknown
12:53 PM 55.9 °F - 21.0 °F 26% 29.65 in - WNW 18.4 mph 28.8 mph N/A   Unknown
1:53 PM 55.0 °F - 18.0 °F 23% 29.63 in - West 19.6 mph 29.9 mph N/A   Unknown
2:53 PM 57.0 °F - 18.0 °F 22% 29.62 in - WNW 19.6 mph 29.9 mph N/A   Unknown
3:43 PM 55.9 °F - 19.0 °F 24% 29.76 in - WNW 20.7 mph 28.8 mph N/A   Unknown
3:53 PM 54.0 °F - 19.9 °F 26% 29.61 in - WNW 19.6 mph 27.6 mph N/A   Unknown
4:53 PM 53.1 °F - 19.9 °F 27% 29.64 in - NW 19.6 mph 24.2 mph N/A   Unknown
5:53 PM 50.0 °F - 16.0 °F 26% 29.65 in - WNW 16.1 mph - N/A   Unknown
6:53 PM 46.0 °F 41.4 °F 15.1 °F 29% 29.68 in - NW 9.2 mph 20.7 mph N/A   Unknown
7:53 PM 45.0 °F 40.1 °F 16.0 °F 31% 29.68 in - NW 9.2 mph - N/A   Unknown
8:53 PM 44.1 °F 39.0 °F 16.0 °F 32% 29.68 in - North 9.2 mph - N/A   Unknown
9:53 PM 42.1 °F 36.1 °F 21.0 °F 43% 29.70 in - North 10.4 mph - N/A   Unknown
10:53 PM 39.9 °F 32.9 °F 21.9 °F 49% 29.71 in - North 11.5 mph - N/A   Unknown
11:53 PM 39.0 °F 34.0 °F 23.0 °F 53% 29.71 in - North 6.9 mph - N/A   Unknown